[[{"header":{"parameterUnit":"m.s-1","parameterCategory":1,"la1":30.2991,"la2":30.254,"lo1":-89.0895,"lo2":-89.0444,"dx":0.0017,"dy":0.0017,"nx":28,"ny":28,"refTime":"2022-12-30T15:00:00:Z","depth":0,"parameterNumber":2,"parameterNumberName":"U-component_of_WINDS"},"data":[0,0,0,0,0,0,0,0,0,0,0,0,0,0,0,0,0,0,0,0,0,0,0,0,0,0,0,0,0,0,0,0,0,0,0,0,0,0,0,0,0,0,0,0,0,0,0,0,0,0,0,0,0,0,0,0,0,0,1.039,1.0391,0,1.0512,1.0513,1.0515,1.0517,1.0516,1.0514,1.0513,1.0642,1.0647,1.0652,0,0,0,0,0,0,0,0,0,0,0,0,0,1.0163,1.0167,1.0389,1.0391,1.0392,1.0512,1.0513,1.0515,1.0517,1.0516,1.0514,1.0512,1.0641,1.0646,1.0652,0,0,0,0,0,0,0,0,0,0,0,0,0,1.0271,1.0168,1.0389,1.0408,1.0411,1.0511,1.0514,1.0516,1.0518,1.0516,1.0513,1.0511,1.0639,1.0646,1.0653,1.0744,0,0,1.0675,1.0678,0,0,0,0,0,0,0,0,1.0265,1.0279,1.0404,1.0407,1.041,1.0497,1.0481,1.0592,1.0518,1.0477,1.0513,1.051,1.0596,1.0607,1.0635,1.075,1.0756,1.0676,1.068,1.0684,1.0686,0,0,0,0,0,0,0,1.0257,1.0274,1.0438,1.0405,1.041,1.0412,1.0425,1.0502,1.0548,1.0481,1.0481,1.0495,1.0597,1.0628,1.0638,1.0758,1.0676,1.0682,1.0687,1.069,1.0958,1.0961,0,0,0,0,0,0,1.0245,1.0268,1.0434,1.0442,1.033,1.0418,1.0432,1.0471,1.0547,1.0557,1.0497,1.0495,1.0616,1.0629,1.0642,1.0757,1.0683,1.069,1.0695,1.0955,1.0959,1.0962,0,0,0,0,0,0,1.024,1.026,1.0429,1.0355,1.0377,1.0424,1.0468,1.0475,1.0505,1.056,1.0568,1.052,1.0615,1.0632,1.0719,1.0761,1.0694,1.07,1.0952,1.0957,1.096,1.0985,0,0,0,0,0,0,1.0234,1.0258,1.0292,1.0356,1.038,1.0503,1.0471,1.0479,1.0518,1.0516,1.0583,1.0592,1.0615,1.0709,1.0727,1.077,1.0706,1.0949,1.0954,1.0959,1.0981,1.0989,1.0997,0,0,0,0,0,1.0226,1.0294,1.0294,1.0314,1.0424,1.0505,1.0519,1.0543,1.0521,1.0557,1.0592,1.059,1.0753,1.0717,1.0738,1.0784,1.0946,1.0953,1.0959,1.0977,1.0988,1.0997,0,0,0,0,0,0,1.0235,1.0303,1.0303,1.0394,1.0444,1.0505,1.055,1.0553,1.0611,1.0607,1.0635,1.065,1.0738,1.0769,1.0728,1.0878,1.0848,1.0858,1.0854,1.0865,1.0873,1.0864,1.0712,0,0,0,0,0,1.0248,1.0307,1.0363,1.0438,1.0463,1.0502,1.0539,1.0552,1.0606,1.0627,1.0669,1.0722,1.0785,1.0827,1.0888,1.0985,1.1001,1.1027,1.1035,1.1041,1.1051,1.1108,1.1121,1.0982,1.0982,1.0982,0,0,1.0274,1.0319,1.0354,1.0441,1.0481,1.0544,1.052,1.0586,1.0634,1.0638,1.0723,1.0755,1.0817,1.091,1.0953,1.0939,1.1093,1.1049,1.1054,1.106,1.1115,1.1128,1.114,1.0986,1.0985,1.0985,0,0,1.0356,1.0394,1.0462,1.0502,1.0563,1.059,1.0606,1.0668,1.069,1.0775,1.078,1.0838,1.0946,1.099,1.1027,1.1127,1.1129,1.1146,1.1189,1.1244,1.1255,1.1265,1.1303,1.1317,1.1155,1.1155,1.1155,0,1.0381,1.0474,1.0496,1.0564,1.0603,1.0608,1.0679,1.0718,1.0796,1.0824,1.0807,1.0945,1.0986,1.1091,1.1116,1.1144,1.1166,1.1139,1.1251,1.1262,1.1271,1.1308,1.1322,1.1157,1.1157,1.1157,1.1156,0,1.0505,1.0569,1.0617,1.0692,1.0737,1.0805,1.084,1.0883,1.0893,1.0922,1.1011,1.1061,1.1133,1.1159,1.117,1.1267,1.1257,1.1245,1.1215,1.1286,1.1321,1.1336,1.116,1.1159,1.1158,1.1158,0,0,1.0595,1.0683,1.07,1.0736,1.0804,1.0856,1.0925,1.0996,1.1033,1.1087,1.1149,1.1241,1.1231,1.1273,1.1289,1.1337,1.1417,1.132,1.1322,1.1339,1.153,1.154,1.1556,1.1417,1.142,1.1422,1.1526,0,1.0685,1.0808,1.0831,1.094,1.1001,1.1008,1.107,1.112,1.1149,1.1207,1.1239,1.1306,1.1286,1.1312,1.136,1.1397,1.1456,1.1389,1.1477,1.148,1.1464,1.1574,1.1584,1.1679,1.154,1.1542,1.1544,0,1.0807,1.0864,1.0979,1.1042,1.1068,1.1123,1.1191,1.1245,1.1303,1.1321,1.1369,1.138,1.1455,1.142,1.1526,1.1481,1.1518,1.1542,1.1546,1.1557,1.1517,1.159,1.171,1.1725,1.1565,1.1563,1.1562,0,1.0865,1.097,1.1053,1.1083,1.1158,1.1196,1.123,1.1285,1.1327,1.1386,1.1414,1.1482,1.152,1.1573,1.1604,1.1575,1.1709,1.1675,1.1728,1.1727,1.1757,1.1755,1.1887,1.1777,1.1777,1.1777,1.1777,0,1.0964,1.1035,1.1081,1.1132,1.1212,1.1238,1.1317,1.135,1.14,1.1459,1.1469,1.1525,1.156,1.1622,1.1646,1.1732,1.1748,1.1767,1.1773,1.1767,1.1765,1.1793,1.1789,1.1781,1.178,1.1779,1.1779,0,1.1043,1.1076,1.1167,1.123,1.1248,1.1305,1.136,1.1411,1.144,1.1516,1.1535,1.1582,1.1655,1.169,1.1781,1.1797,1.1895,1.1896,1.1876,1.1879,1.193,1.1926,1.2086,1.211,1.1982,1.1984,1.1985,0,1.1105,1.1159,1.1229,1.1269,1.1303,1.1367,1.141,1.1439,1.1484,1.1555,1.1599,1.1672,1.1732,1.185,1.1893,1.1963,1.1967,1.2019,1.1978,1.1971,1.1971,1.1968,1.1975,1.2026,1.2028,1.2029,1.203,0,1.1213,1.1227,1.1288,1.1356,1.1407,1.1461,1.1515,1.1548,1.1586,1.1636,1.171,1.1757,1.185,1.1924,1.1998,1.2034,1.204,1.2042,1.2058,1.2054,1.2041,1.2052,1.1898,1.2038,1.2038,1.2037,1.2036,1.2036,1.1287,1.1337,1.1394,1.1463,1.1506,1.1557,1.1609,1.1645,1.1707,1.1785,1.1799,1.1879,1.1938,1.2037,1.2076,1.2141,1.2129,1.2152,1.2159,1.2165,1.2169,1.2029,1.2154,1.2154,1.2154,1.2154,1.2153,0,1.1398,1.1436,1.1498,1.1573,1.1628,1.1626,1.1687,1.1733,1.1803,1.1857,1.1917,1.2004,1.2076,1.2126,1.22,1.2242,1.2247,1.2261,1.2259,1.2268,1.2173,1.2153,1.2256,1.2256,1.2256,1.2256,1.2256,1.2256,1.1462,1.1547,1.1569,1.1677,1.1714,1.1792,1.1827,1.1875,1.1919,1.2016,1.2075,1.2107,1.216,1.2238,1.2305,1.2318,1.2346,1.2361,1.2374,1.2285,1.2274,1.2264,1.2245,1.2366,1.2366,1.2464,1.2465,1.2465]},{"header":{"parameterUnit":"m.s-1","parameterCategory":1,"la1":30.2991,"la2":30.254,"lo1":-89.0895,"lo2":-89.0444,"dx":0.0017,"dy":0.0017,"nx":28,"ny":28,"refTime":"2022-12-30T15:00:00:Z","depth":0,"parameterNumber":3,"parameterNumberName":"V-component_of_WINDS"},"data":[0,0,0,0,0,0,0,0,0,0,0,0,0,0,0,0,0,0,0,0,0,0,0,0,0,0,0,0,0,0,0,0,0,0,0,0,0,0,0,0,0,0,0,0,0,0,0,0,0,0,0,0,0,0,0,0,0,0,1.856,1.8562,0,1.874,1.8742,1.8744,1.8783,1.8782,1.878,1.8779,1.8966,1.8972,1.8978,0,0,0,0,0,0,0,0,0,0,0,0,0,1.8253,1.8259,1.856,1.8562,1.8565,1.874,1.8742,1.8745,1.8783,1.8782,1.878,1.8778,1.8964,1.8971,1.8979,0,0,0,0,0,0,0,0,0,0,0,0,0,1.8405,1.826,1.856,1.8605,1.8611,1.8739,1.8742,1.8745,1.8784,1.8782,1.878,1.8778,1.8962,1.8971,1.898,1.9077,0,0,1.9008,1.9012,0,0,0,0,0,0,0,0,1.8397,1.8416,1.8596,1.8602,1.8609,1.8737,1.8703,1.8857,1.8784,1.8718,1.8779,1.8777,1.8892,1.8907,1.8945,1.9086,1.9094,1.9009,1.9015,1.9019,1.9021,0,0,0,0,0,0,0,1.8386,1.8409,1.8631,1.8599,1.8606,1.8617,1.8637,1.8732,1.8814,1.8724,1.8727,1.8747,1.8895,1.8936,1.8949,1.9096,1.9009,1.9017,1.9023,1.9026,1.9329,1.9331,0,0,0,0,0,0,1.8367,1.84,1.8626,1.8637,1.8495,1.8624,1.8646,1.8698,1.8813,1.8828,1.8749,1.8749,1.8921,1.8938,1.8956,1.908,1.9019,1.9027,1.9033,1.9326,1.9329,1.9332,0,0,0,0,0,0,1.836,1.8387,1.8618,1.8519,1.855,1.8632,1.869,1.8702,1.8744,1.8832,1.8847,1.8776,1.892,1.8943,1.9047,1.9087,1.9032,1.904,1.9324,1.9327,1.9331,1.9326,0,0,0,0,0,0,1.8351,1.8384,1.8421,1.852,1.8555,1.8705,1.8692,1.8707,1.8759,1.876,1.8861,1.8876,1.892,1.9033,1.9056,1.9099,1.9047,1.932,1.9325,1.933,1.9323,1.9329,1.9335,0,0,0,0,0,1.834,1.8413,1.8423,1.845,1.8603,1.8708,1.8728,1.8776,1.8762,1.8801,1.8858,1.8873,1.9078,1.9043,1.907,1.9116,1.9318,1.9324,1.9329,1.9321,1.9328,1.9334,0,0,0,0,0,0,1.8318,1.8427,1.8439,1.8545,1.8617,1.8714,1.8764,1.8782,1.886,1.8858,1.8916,1.8938,1.9039,1.9088,1.9047,1.9217,1.9198,1.9209,1.9182,1.919,1.9195,1.9183,1.9055,0,0,0,0,0,1.8325,1.84,1.8491,1.8577,1.8612,1.8681,1.8729,1.876,1.8837,1.8868,1.8933,1.9007,1.9089,1.9142,1.9221,1.933,1.9354,1.9374,1.938,1.9384,1.9394,1.9457,1.9468,1.935,1.935,1.935,0,0,1.8341,1.841,1.8454,1.8574,1.8633,1.8711,1.8707,1.8789,1.8848,1.8881,1.8984,1.9033,1.9121,1.9228,1.9278,1.9271,1.9431,1.9391,1.9394,1.9402,1.9464,1.9475,1.9485,1.9354,1.9353,1.9353,0,0,1.8411,1.8469,1.8548,1.8607,1.8696,1.8742,1.8761,1.8856,1.889,1.8993,1.902,1.9091,1.923,1.9292,1.9341,1.9435,1.9453,1.9459,1.949,1.9551,1.956,1.9569,1.9605,1.9616,1.9468,1.9468,1.9468,0,1.842,1.8538,1.8586,1.8668,1.8721,1.8752,1.8834,1.8889,1.9,1.9036,1.9026,1.9202,1.9263,1.9386,1.9409,1.9447,1.9472,1.9449,1.9554,1.9564,1.9572,1.9607,1.9621,1.9468,1.9468,1.9468,1.9468,0,1.8546,1.8627,1.868,1.8786,1.8845,1.8926,1.8988,1.9041,1.9067,1.9115,1.9221,1.9295,1.9391,1.9422,1.9448,1.955,1.9543,1.9542,1.9525,1.9583,1.9617,1.9631,1.9469,1.9469,1.9469,1.9469,0,0,1.8608,1.874,1.8759,1.8808,1.8909,1.8974,1.9056,1.915,1.9196,1.9271,1.9344,1.946,1.9461,1.9517,1.9551,1.9604,1.9676,1.9598,1.9601,1.9612,1.9796,1.9798,1.9812,1.9687,1.969,1.9692,1.979,0,1.8693,1.8841,1.8887,1.9012,1.9089,1.912,1.9193,1.9263,1.931,1.9383,1.9434,1.9517,1.951,1.9545,1.9598,1.9656,1.9715,1.9649,1.9758,1.9761,1.9738,1.983,1.9832,1.992,1.9803,1.9805,1.9807,0,1.8811,1.8889,1.9021,1.9114,1.9148,1.9212,1.9302,1.9371,1.9452,1.9482,1.9545,1.9574,1.9663,1.9638,1.9763,1.9718,1.9764,1.9799,1.9804,1.9818,1.979,1.9849,1.9949,1.9963,1.9828,1.9826,1.9825,0,1.8847,1.8984,1.9082,1.9123,1.9232,1.9277,1.9325,1.9404,1.9457,1.9536,1.9572,1.966,1.9709,1.9777,1.983,1.9806,1.9952,1.993,1.9981,1.998,2.0013,2.0011,2.0124,2.0038,2.0037,2.0037,2.0037,0,1.8939,1.9019,1.91,1.916,1.9252,1.9304,1.9394,1.9443,1.9513,1.9585,1.9616,1.9683,1.9747,1.9822,1.9864,1.9963,1.9984,2.0012,2.0023,2.0011,2.0008,2.0045,2.0042,2.0041,2.004,2.0039,2.0039,0,1.8996,1.9052,1.9162,1.9256,1.9281,1.9345,1.9427,1.9487,1.9534,1.9625,1.9649,1.9723,1.9814,1.9872,1.9988,2.0016,2.0125,2.0132,2.0098,2.0104,2.0152,2.0148,2.0296,2.032,2.0214,2.0215,2.0216,0,1.9052,1.9115,1.9216,1.9266,1.9314,1.9394,1.9449,1.9502,1.9559,1.9656,1.9705,1.9797,1.9875,2.0018,2.0084,2.0173,2.0184,2.023,2.0198,2.0185,2.0189,2.0186,2.0194,2.0236,2.0237,2.0238,2.0238,0,1.9147,1.9172,1.9249,1.9338,1.9402,1.9474,1.9546,1.9585,1.9651,1.9713,1.9806,1.9866,1.9984,2.0076,2.0171,2.0221,2.0242,2.0247,2.0265,2.0255,2.0234,2.0249,2.0115,2.0245,2.0244,2.0243,2.0243,2.0243,1.9208,1.9266,1.9346,1.9432,1.9492,1.9559,1.9621,1.9675,1.9753,1.9854,1.988,1.9978,2.0058,2.0188,2.024,2.0318,2.0313,2.0336,2.0343,2.0349,2.0351,2.0218,2.0335,2.0335,2.0335,2.0335,2.0334,0,1.9307,1.936,1.9438,1.9538,1.9606,1.9617,1.9698,1.9755,1.984,1.9913,1.9988,2.0095,2.0185,2.0257,2.035,2.0398,2.041,2.0421,2.042,2.0432,2.0349,2.0327,2.041,2.041,2.041,2.041,2.041,2.041,1.9367,1.9467,1.9501,1.9631,1.9684,1.978,1.9825,1.9887,1.9946,2.0064,2.0139,2.0184,2.0258,2.0356,2.0439,2.0458,2.0492,2.0502,2.0523,2.0446,2.0437,2.043,2.0409,2.0508,2.0508,2.06,2.0601,2.0601]}]]